DECAYED

OBJECT S, 62393 (Decayed)

Orbit data source: Space-Track

You're viewing an uncataloged RSO

Recently launched and/or uncataloged RSOs may have evolving metadata. Metadata may include the following, but is not limited to: Owner, Manufacturer, Bus, Motor, and Mission.

OBJECT S, 62393 was a satellite in LEO that was launched on Sat, 21 Dec 2024 UTC via an FALCON 9 launch vehicle from the Air Force Western Test Range (AFWTR). Unknown objects in Earth's orbit typically refer to objects detected orbiting the Earth but have not yet been identified or cataloged. These objects could be anything from previously untracked satellites, spent rocket stages, debris from satellite collisions, or even natural meteoroids temporarily captured by Earth's gravity. This object's orbit decayed before it could be identified.

Not visible in the next 10 days
Identifier
62393, 2024-247S
Orbit
Decayed
Country
Flag of TBDTBD
Related business
None
Manufacturer
Unknown
Mission
Decayed Commercial Communications
Bus & Motor
Unknown
Mass
Unknown
Launch date (UTC)
2024-12-21 (2 years ago)
Launch vehicle
FALCON 9
Launch site
Air Force Western Test Range (AFWTR)
Object type
Unknown
Shape & HBR
Box, 0.0 m
Radar Cross Section
0.004 m², Medium (>0.1 m² and < 1m²)

Expand to show TLE details & history
Last TLE update: 3 months ago

TLE from 3 months ago
0 OBJECT S
1 62393U 24247S   26168.43352350  .08555031  10449-4  12024-2 0  9990
2 62393  44.9438 214.8221 0004217 356.8938   3.1957 16.33986744 83897
Epoch: 2026-06-17T10:24Z
TLE epoch observation values (Epoch: 2026-06-17T10:24:16.430Z)
Latitude
-0.00007°
Longitude
153.0623°
Altitude
179.078 km
Speed
7.802 km/s
True Right ascension
14h 19m 17s
True Declination
0° 00' 00"
Sunlit
Object was in full shadow at epoch
Visualization orbit readout
Latitude
Unknown
Longitude
Unknown
Altitude
Unknown
Speed
Unknown
Apparent Right ascension
Unknown
Apparent Declination
Unknown
Sunlit
N/A
Visualization observer readout
Local Sidereal Time
15:14:34
Azimuth
Unknown
Elevation
Unknown
Doppler factor
Unknown
Orbital elements
Apogee altitude
186.307 km
Perigee altitude
180.773 km
Semi-major axis
6,561.677 km
Eccentricity
0.00042
Inclination
44.9438°
RAAN
214.8221°
Arg. of periapsis
356.8938°
True anomaly
3.1984°
Mean anomaly
3.1957°
Eccentric anomaly
3.19705°
Mean motion
4.08339 °/min
Orbital period
88.16 mins
BSTAR
0.0012024
Loading maneuver chart data...
Computing Atmospheric mass density...
Loading historical data...
Loading historical data...
Loading historical data...
Loading historical data...
Loading historical data...
Loading historical data...
Loading historical data...

Documentation

Showing up to 5 results
|